Location: St. Louis
(38.6270°N, 90.1994°W)
Time: 09:07:23
(UTC-06:00)

Vanguard 2 Rocket - Pass Details

Date: 30 November 2021
Orbit: 553 x 3325 km, 32.9° (Epoch: 23 January)

Event Time Altitude Azimuth Distance (km) Brightness Sun altitude
Rises 01:05:58 0° 278° (W) 5,786 - -66.4°
Reaches altitude 10° 01:09:45 10° 271° (W) 5,120 - -65.9°
Maximum altitude 01:23:40 37° 212° (SSW) 4,193 - -63.7°
Exits shadow 01:38:00 16° 159° (SSE) 5,781 10.8 -61.3°
Drops below altitude 10° 01:40:53 10° 154° (SSE) 6,243 11.1 -60.8°
Sets 01:46:14 0° 147° (SSE) 7,142 11.5 -59.8°
